{"data":{"norad_id":66600,"epoch":"2026-05-24T22:30:52.200288Z","epoch_age_seconds":73673,"freshness":"FRESH","line1":"1 66600U 25270N   26144.93810417  .00019687  00000+0  72293-3 0  9990","line2":"2 66600  43.0025 345.8668 0001412 267.2840  92.7850 15.27584312 29269","mean_motion":15.27584312,"eccentricity":0.0001412,"inclination_deg":43.0025,"raan_deg":345.8668,"arg_perigee_deg":267.284,"mean_anomaly_deg":92.785,"bstar":0.00072293,"rev_number":2926,"period_min":94.266482621484,"perigee_km":482.06738673716,"apogee_km":484.00498204443,"semimajor_km":6861.1731843908,"source":"CELESTRAK","updated_at":"2026-05-25T13:38:21.289607Z"}}